This is the latest recevied weather packets stored in our database for station/object SP8NFE-1. If no packets are shown the sender has not sent any weather packets the latest 10 day(s).
| Time | Temp. | Humidity | Pressure | Rain* | Wind** | Luminosity | Snow |
|---|---|---|---|---|---|---|---|
| 1778046608 | 15.56° C | 67% | 0 hPa | 0 mm | - | - | - |
| 1778046308 | 15° C | 72% | 0 hPa | 0 mm | - | - | - |
| 1778046008 | 13.89° C | 75% | 0 hPa | 0 mm | - | - | - |
| 1778045708 | 13.33° C | 85% | 0 hPa | 0 mm | - | - | - |
| 1778045408 | 12.78° C | 94% | 0 hPa | 0.25 mm | - | - | - |
| 1778045108 | 11.67° C | 95% | 0 hPa | 0.25 mm | - | - | - |
| 1778044808 | 11.11° C | 96% | 0 hPa | 0.25 mm | - | - | - |
| 1778044508 | 10° C | 97% | 0 hPa | 0.25 mm | - | - | - |
| 1778044208 | 9.44° C | 97% | 0 hPa | 0.25 mm | - | - | - |
| 1778043908 | 8.33° C | 99% | 0 hPa | 0.25 mm | - | - | - |
| 1778043608 | 8.33° C | 100% | 0 hPa | 0.25 mm | - | - | - |
| 1778043308 | 7.78° C | 100% | 0 hPa | 0.25 mm | - | - | - |
| 1778043008 | 7.22° C | 100% | 0 hPa | 0.25 mm | - | - | - |
| 1778042708 | 7.22° C | 100% | 0 hPa | 0.25 mm | - | - | - |
| 1778042408 | 6.67° C | 100% | 0 hPa | 0.25 mm | - | - | - |
| 1778042108 | 6.67° C | 100% | 0 hPa | 0.25 mm | - | - | - |
| 1778041808 | 6.67° C | 100% | 0 hPa | 0 mm | - | - | - |
| 1778041508 | 6.67° C | 100% | 0 hPa | 0 mm | - | - | - |
| 1778041208 | 6.67° C | 100% | 0 hPa | 0 mm | - | - | - |
| 1778040908 | 6.11° C | 100% | 0 hPa | 0 mm | - | - | - |
| 1778040608 | 6.11° C | 100% | 0 hPa | 0 mm | - | - | - |
| 1778040308 | 6.11° C | 100% | 0 hPa | 0 mm | - | - | - |
| 1778040008 | 6.11° C | 100% | 0 hPa | 0 mm | - | - | - |
| 1778039708 | 6.11° C | 100% | 0 hPa | 0 mm | - | - | - |
| 1778039408 | 6.11° C | 100% | 0 hPa | 0 mm | - | - | - |
* Rain latest hour (hover to see other rain measurements)
** Current wind speed in m/s (hover to see current wind gust speed)